515  
ASUS43 KJKL 280010  
RWRJKL  
 
EAST KENTUCKY HOURLY WEATHER ROUNDUP  
NATIONAL WEATHER SERVICE JACKSON KY  
800 PM EDT TUE SEP 27 2022  
 
NOTE: "FAIR" INDICATES FEW OR NO CLOUDS BELOW 12,000 FEET WITH  
NO SIGNIFICANT WEATHER AND/OR S TO VISIBILITY
.  
 
* THESE REPORTS ARE NOT UNDER NWS QUALITY CONTROL AND MAY NOT  
REPORT WEATHER SUCH AS PRECIPITATION AND FOG.
 
 
KYZ079-080-083-085-087-088-110-112-115-119-120-280100   
..EASTERN KENTUCKY
 
 
 
CITY SKY/WX TMP DP RH WIND PRES REMARKS
 
JACKSON CLEAR 59 35 40 VRB5 30.12R  
6HR MIN TEMP: 59; 6HR MAX TEMP: 68;  
 
LONDON CLEAR 60 36 40 NW5 30.12R  
6HR MIN TEMP: 60; 6HR MAX TEMP: 68;  
 
SOMERSET* CLEAR 63 37 39 CALM 30.12R  
WILLIAMSBURG* FAIR 55 37 50 W3 30.13R  
MIDDLESBORO* CLEAR 54 44 70 CALM 30.13R  
6HR MIN TEMP: 54; 6HR MAX TEMP: 68;  
 
HARLAN APT* CLEAR 53 42 67 CALM 30.13R  
PIKE CO APT* MOCLDY 57 38 48 NW6 30.11R  
BIG SANDY APT* MOCLDY 58 39 48 CALM 30.12R  
6HR MIN TEMP: 58; 6HR MAX TEMP: 66;  
 
MOREHEAD APT* CLEAR 57 34 41 NW5 30.13R  
ASHLAND* PTCLDY 59 42 53 CALM 30.11R  

 
 
KYZ035-036-041-042-044-050-067-078-099-280100   
..CENTRAL KENTUCKY
 
 
 
CITY SKY/WX TMP DP RH WIND PRES REMARKS
 
MT STERLING* PTCLDY 57 37 47 N5 30.15R  
FLEMING/MASON* PTCLDY 57 36 45 NW5 30.14R  
DANVILLE* MOCLDY 55 36 47 CALM 30.15R  
RICHMOND* FAIR 57 37 47 W5 30.14R  
LEXINGTON CLEAR 59 35 40 N5 30.13R  
6HR MIN TEMP: 59; 6HR MAX TEMP: 70;  
 
FRANKFORT CLEAR 56 40 55 NW3 30.12R  
6HR MIN TEMP: 56; 6HR MAX TEMP: 69;  
 
LOUISVILLE PTCLDY 64 36 35 NW8 30.13R  
6HR MIN TEMP: 64; 6HR MAX TEMP: 71;  
 
LEBANON* FAIR 59 34 38 W3 30.14R  
GLASGOW* CLEAR 60 38 44 CALM 30.15R  
BOWLING GREEN CLEAR 66 33 29 CALM 30.15R  
6HR MIN TEMP: 66; 6HR MAX TEMP: 74;  
 

 
 
KYZ091>093-OHZ055-061-077-WVZ005-015-034-035-042-280100   
..SOUTHERN OHIO/WEST VIRGINIA
 
 
 
CITY SKY/WX TMP DP RH WIND PRES REMARKS
 
COVINGTON PTCLDY 57 37 47 NW7 30.12R  
COLUMBUS PTCLDY 53 42 66 NW9 30.09R  
DAYTON PTCLDY 54 33 45 NW8 30.13R  
WILMINGTON CLEAR 56 33 42 NW9 30.11R  
HUNTINGTON PTCLDY 59 37 44 NW6 30.10R  
CHARLESTON PTCLDY 53 47 79 CALM 30.09R  
BECKLEY PTCLDY 51 38 60 W3 30.11R  
BLUEFIELD PTCLDY 50 36 58 W5 30.12R  
LOGAN CO APT* CLOUDY 57 37 47 NW5 30.10R  

 
 
VAZ002-007-008-TNZ017-027-036-066-071-280100   
..SOUTHWEST VIRGINIA/EAST TENNESSEE
 
 
 
CITY SKY/WX TMP DP RH WIND PRES REMARKS
 
WISE* PTCLDY 52 36 54 W3 30.14S  
JONESVILLE* FAIR 55 41 58 CALM 30.13R  
ABINGDON* CLEAR 56 39 53 N5 30.12R  
BRISTOL CLEAR 59 37 44 W6 30.11R  
SEVIERVILLE* CLEAR 61 37 41 CALM 30.11R  
KNOXVILLE CLEAR 65 36 34 NW7 30.11R  
LAFOLLETTE* CLEAR 59 39 47 NW3 30.16R  
OAK RIDGE CLEAR 61 40 45 CALM 30.13R  
CROSSVILLE CLEAR 53 41 63 W3 30.15R  
NASHVILLE CLEAR 68 30 24 N8 30.14R  

 
   
..KEY TO REMARKS
 
 
VSB - VISIBILITY IN MILES  
WCI - WIND CHILL INDEX  
HX - HEAT INDEX  
 

 
 
 
CLICK HERE TO GO TO PREVIOUS BULLETINS.

The Nexlab KY Page Main Text Page